M I D A S
Marine Information and Data Acquisition System
Tripno 1302 of the Zeeleeuw from 2007-07-30 08:39:05 to 2007-07-30 13:44:51
Back to CruiseResearch ActivitiesStationsMapUnderway DataData graphs

EquipmentUnitsComment
TimeDGPSUTC
LatitudeDGPSDM.mWGS84
LongitudeDGPSDM.mWGS84
TemperatureSBE03/SBE38deg celciusITS90
ConductivitySBE21S/mITS90
SalinitySBE21 Practical Salinity Units
ChlorophylAChelsea fluorimeterg/lCalibrated in Aceton
Missing or incorrect values are displayed as -999
Sea surface data collected by the RV Zeeleeuw from 2007-07-30 06:59:30 to 2007-07-30 13:56:19
Time Latitude Longitude Temperature Conductivity Salinity ChlorophylA
2007-07-30 07:00:34 51°15.943 2°53.571 -999 -999 -999 -999
2007-07-30 07:01:34 51°16.116 2°53.409 -999 -999 -999 -999
2007-07-30 07:02:34 51°16.29 2°53.248 -999 -999 -999 -999
2007-07-30 07:03:34 51°16.464 2°53.089 -999 -999 -999 -999
2007-07-30 07:04:34 51°16.64 2°52.938 -999 -999 -999 -999
2007-07-30 07:05:35 51°16.818 2°52.784 -999 -999 -999 -999
2007-07-30 07:06:34 51°16.994 2°52.673 -999 -999 -999 -999
2007-07-30 07:07:35 51°17.182 2°52.59 -999 -999 -999 -999
2007-07-30 07:08:34 51°17.364 2°52.516 -999 -999 -999 -999
2007-07-30 07:09:34 51°17.552 2°52.526 -999 -999 -999 -999
2007-07-30 07:10:34 51°17.74 2°52.535 -999 -999 -999 -999
2007-07-30 07:11:34 51°17.926 2°52.554 -999 -999 -999 -999
2007-07-30 07:12:34 51°18.09 2°52.672 -999 -999 -999 -999
2007-07-30 07:13:34 51°18.223 2°52.881 -999 -999 -999 -999
2007-07-30 07:14:34 51°18.312 2°53.152 -999 -999 -999 -999
2007-07-30 07:15:35 51°18.398 2°53.43 -999 -999 -999 -999
2007-07-30 07:16:35 51°18.48 2°53.704 -999 -999 -999 -999
2007-07-30 07:17:34 51°18.563 2°53.968 -999 -999 -999 -999
2007-07-30 07:18:34 51°18.638 2°54.245 -999 -999 -999 -999
2007-07-30 07:19:34 51°18.706 2°54.528 -999 -999 -999 -999
2007-07-30 07:20:34 51°18.78 2°54.809 -999 -999 -999 -999
2007-07-30 07:21:34 51°18.853 2°55.089 -999 -999 -999 -999
2007-07-30 07:22:34 51°18.918 2°55.374 -999 -999 -999 -999
2007-07-30 07:23:34 51°18.985 2°55.659 -999 -999 -999 -999
2007-07-30 07:24:34 51°19.051 2°55.941 -999 -999 -999 -999
2007-07-30 07:25:35 51°19.117 2°56.224 -999 -999 -999 -999
2007-07-30 07:26:35 51°19.187 2°56.499 -999 -999 -999 -999
2007-07-30 07:27:35 51°19.254 2°56.775 -999 -999 -999 -999
2007-07-30 07:28:35 51°19.318 2°57.05 -999 -999 -999 -999
2007-07-30 07:29:34 51°19.379 2°57.323 -999 -999 -999 -999
2007-07-30 07:30:34 51°19.444 2°57.599 -999 -999 -999 -999
2007-07-30 07:31:34 51°19.512 2°57.872 -999 -999 -999 -999
2007-07-30 07:32:34 51°19.578 2°58.148 -999 -999 -999 -999
2007-07-30 07:33:34 51°19.644 2°58.421 -999 -999 -999 -999
2007-07-30 07:34:34 51°19.714 2°58.692 -999 -999 -999 -999
2007-07-30 07:35:35 51°19.769 2°58.977 -999 -999 -999 -999
2007-07-30 07:36:35 51°19.822 2°59.255 -999 -999 -999 -999
2007-07-30 07:37:35 51°19.88 2°59.531 -999 -999 -999 -999
2007-07-30 07:38:34 51°19.935 2°59.802 -999 -999 -999 -999
2007-07-30 07:39:34 51°19.992 3°0.077 -999 -999 -999 -999
2007-07-30 07:40:34 51°20.049 3°0.353 -999 -999 -999 -999
2007-07-30 07:41:34 51°20.109 3°0.631 -999 -999 -999 -999
2007-07-30 07:42:35 51°20.168 3°0.917 -999 -999 -999 -999
2007-07-30 07:43:34 51°20.228 3°1.192 -999 -999 -999 -999
2007-07-30 07:44:35 51°20.29 3°1.476 -999 -999 -999 -999
2007-07-30 07:45:34 51°20.349 3°1.75 -999 -999 -999 -999
2007-07-30 07:46:35 51°20.414 3°2.036 -999 -999 -999 -999
2007-07-30 07:47:35 51°20.474 3°2.32 -999 -999 -999 -999
2007-07-30 07:48:34 51°20.534 3°2.598 -999 -999 -999 -999
2007-07-30 07:49:34 51°20.594 3°2.88 -999 -999 -999 -999
2007-07-30 07:50:34 51°20.655 3°3.157 -999 -999 -999 -999
2007-07-30 07:51:35 51°20.718 3°3.44 -999 -999 -999 -999
2007-07-30 07:52:34 51°20.771 3°3.718 -999 -999 -999 -999
2007-07-30 07:53:35 51°20.816 3°4.012 -999 -999 -999 -999
2007-07-30 07:54:34 51°20.864 3°4.295 -999 -999 -999 -999
2007-07-30 07:55:35 51°20.908 3°4.59 -999 -999 -999 -999
2007-07-30 07:56:34 51°20.951 3°4.875 -999 -999 -999 -999
2007-07-30 07:57:34 51°20.996 3°5.167 -999 -999 -999 -999
2007-07-30 07:58:34 51°21.036 3°5.457 -999 -999 -999 -999
2007-07-30 07:59:34 51°21.079 3°5.748 -999 -999 -999 -999
2007-07-30 08:00:34 51°21.13 3°6.032 -999 -999 -999 -999
2007-07-30 08:01:34 51°21.182 3°6.319 -999 -999 -999 -999
2007-07-30 08:02:35 51°21.223 3°6.617 -999 -999 -999 -999
2007-07-30 08:03:34 51°21.249 3°6.911 -999 -999 -999 -999
2007-07-30 08:04:35 51°21.308 3°7.2 -999 -999 -999 -999
2007-07-30 08:05:34 51°21.378 3°7.471 -999 -999 -999 -999
2007-07-30 08:06:34 51°21.406 3°7.765 -999 -999 -999 -999
2007-07-30 08:07:35 51°21.485 3°8.038 -999 -999 -999 -999
2007-07-30 08:08:35 51°21.56 3°8.313 -999 -999 -999 -999
2007-07-30 08:09:35 51°21.637 3°8.59 -999 -999 -999 -999
2007-07-30 08:10:34 51°21.713 3°8.858 -999 -999 -999 -999
2007-07-30 08:11:35 51°21.801 3°9.134 -999 -999 -999 -999
2007-07-30 08:12:34 51°21.887 3°9.403 -999 -999 -999 -999
2007-07-30 08:13:34 51°21.975 3°9.678 -999 -999 -999 -999
2007-07-30 08:14:35 51°22.062 3°9.963 -999 -999 -999 -999
2007-07-30 08:15:35 51°22.143 3°10.249 -999 -999 -999 -999
2007-07-30 08:16:35 51°22.228 3°10.536 -999 -999 -999 -999
2007-07-30 08:17:35 51°22.317 3°10.829 -999 -999 -999 -999
2007-07-30 08:18:35 51°22.403 3°11.122 -999 -999 -999 -999
2007-07-30 08:19:34 51°22.492 3°11.409 -999 -999 -999 -999
2007-07-30 08:20:34 51°22.581 3°11.695 -999 -999 -999 -999
2007-07-30 08:21:34 51°22.665 3°11.975 -999 -999 -999 -999
2007-07-30 08:22:35 51°22.746 3°12.26 -999 -999 -999 -999
2007-07-30 08:23:34 51°22.827 3°12.534 -999 -999 -999 -999
2007-07-30 08:24:35 51°22.909 3°12.818 -999 -999 -999 -999
2007-07-30 08:25:35 51°22.992 3°13.097 -999 -999 -999 -999
2007-07-30 08:26:34 51°23.072 3°13.369 -999 -999 -999 -999
2007-07-30 08:27:34 51°23.151 3°13.646 -999 -999 -999 -999
2007-07-30 08:28:34 51°23.231 3°13.926 -999 -999 -999 -999
2007-07-30 08:29:35 51°23.373 3°14.135 -999 -999 -999 -999
2007-07-30 08:30:35 51°23.548 3°14.254 -999 -999 -999 -999
2007-07-30 08:31:35 51°23.745 3°14.25 -999 -999 -999 -999
2007-07-30 08:32:35 51°23.943 3°14.251 -999 -999 -999 -999
2007-07-30 08:33:34 51°24.138 3°14.265 -999 -999 -999 -999
2007-07-30 08:34:35 51°24.346 3°14.272 -999 -999 -999 -999
2007-07-30 08:35:35 51°24.551 3°14.273 -999 -999 -999 -999
2007-07-30 08:36:35 51°24.758 3°14.265 -999 -999 -999 -999
2007-07-30 08:37:34 51°24.957 3°14.222 -999 -999 -999 -999
2007-07-30 08:38:35 51°25.112 3°14.029 -999 -999 -999 -999
2007-07-30 08:39:35 51°25.228 3°13.779 -999 -999 -999 -999
2007-07-30 08:40:34 51°25.262 3°13.474 -999 -999 -999 -999
2007-07-30 08:41:35 51°25.236 3°13.139 -999 -999 -999 -999
2007-07-30 08:42:35 51°25.221 3°12.81 -999 -999 -999 -999
2007-07-30 08:43:35 51°25.202 3°12.482 -999 -999 -999 -999
2007-07-30 08:44:34 51°25.184 3°12.158 -999 -999 -999 -999
2007-07-30 08:45:35 51°25.16 3°11.822 -999 -999 -999 -999
2007-07-30 08:46:34 51°25.131 3°11.497 -999 -999 -999 -999
2007-07-30 08:47:34 51°25.097 3°11.168 -999 -999 -999 -999
2007-07-30 08:48:35 51°25.057 3°10.832 -999 -999 -999 -999
2007-07-30 08:49:35 51°25.001 3°10.508 -999 -999 -999 -999
2007-07-30 08:50:35 51°24.926 3°10.191 -999 -999 -999 -999
2007-07-30 08:51:34 51°24.859 3°9.876 -999 -999 -999 -999
2007-07-30 08:52:35 51°24.795 3°9.546 -999 -999 -999 -999
2007-07-30 08:53:34 51°24.741 3°9.223 -999 -999 -999 -999
2007-07-30 08:54:34 51°24.689 3°8.892 -999 -999 -999 -999
2007-07-30 08:55:35 51°24.657 3°8.553 -999 -999 -999 -999
2007-07-30 08:56:35 51°24.634 3°8.217 -999 -999 -999 -999
2007-07-30 08:57:35 51°24.638 3°7.888 -999 -999 -999 -999
2007-07-30 08:58:34 51°24.691 3°7.58 -999 -999 -999 -999
2007-07-30 08:59:35 51°24.823 3°7.346 -999 -999 -999 -999
2007-07-30 09:00:35 51°24.954 3°7.118 -999 -999 -999 -999
2007-07-30 09:01:35 51°25.089 3°6.911 -999 -999 -999 -999
2007-07-30 09:02:35 51°25.251 3°6.756 -999 -999 -999 -999
2007-07-30 09:03:35 51°25.429 3°6.776 -999 -999 -999 -999
2007-07-30 09:04:34 51°25.58 3°6.932 -999 -999 -999 -999
2007-07-30 09:05:34 51°25.72 3°7.13 -999 -999 -999 -999
2007-07-30 09:06:35 51°25.851 3°7.356 -999 -999 -999 -999
2007-07-30 09:07:35 51°25.978 3°7.575 -999 -999 -999 -999
2007-07-30 09:08:35 51°26.101 3°7.792 -999 -999 -999 -999
2007-07-30 09:09:35 51°26.227 3°8.005 -999 -999 -999 -999
2007-07-30 09:10:35 51°26.352 3°8.219 -999 -999 -999 -999
2007-07-30 09:11:35 51°26.479 3°8.429 -999 -999 -999 -999
2007-07-30 09:12:35 51°26.609 3°8.64 -999 -999 -999 -999
2007-07-30 09:13:35 51°26.739 3°8.861 -999 -999 -999 -999
2007-07-30 09:14:35 51°26.864 3°9.083 -999 -999 -999 -999
2007-07-30 09:15:35 51°26.988 3°9.306 -999 -999 -999 -999
2007-07-30 09:16:35 51°27.114 3°9.528 -999 -999 -999 -999
2007-07-30 09:17:35 51°27.24 3°9.755 -999 -999 -999 -999
2007-07-30 09:18:34 51°27.365 3°9.981 -999 -999 -999 -999
2007-07-30 09:19:35 51°27.495 3°10.215 -999 -999 -999 -999
2007-07-30 09:20:35 51°27.623 3°10.442 -999 -999 -999 -999
2007-07-30 09:21:35 51°27.743 3°10.685 -999 -999 -999 -999
2007-07-30 09:22:35 51°27.857 3°10.937 -999 -999 -999 -999
2007-07-30 09:23:35 51°27.969 3°11.188 -999 -999 -999 -999
2007-07-30 09:24:35 51°28.084 3°11.437 -999 -999 -999 -999
2007-07-30 09:25:34 51°28.195 3°11.687 -999 -999 -999 -999
2007-07-30 09:26:35 51°28.311 3°11.942 -999 -999 -999 -999
2007-07-30 09:27:35 51°28.435 3°12.18 -999 -999 -999 -999
2007-07-30 09:28:35 51°28.595 3°12.305 -999 -999 -999 -999
2007-07-30 09:29:35 51°28.764 3°12.222 -999 -999 -999 -999
2007-07-30 09:30:35 51°28.918 3°12.058 -999 -999 -999 -999
2007-07-30 09:31:35 51°29.053 3°11.849 -999 -999 -999 -999
2007-07-30 09:32:34 51°29.183 3°11.641 -999 -999 -999 -999
2007-07-30 09:33:35 51°29.311 3°11.406 -999 -999 -999 -999
2007-07-30 09:34:35 51°29.434 3°11.175 -999 -999 -999 -999
2007-07-30 09:35:35 51°29.561 3°10.942 -999 -999 -999 -999
2007-07-30 09:36:35 51°29.692 3°10.705 -999 -999 -999 -999
2007-07-30 09:37:35 51°29.822 3°10.469 -999 -999 -999 -999
2007-07-30 09:38:35 51°29.954 3°10.233 -999 -999 -999 -999
2007-07-30 09:39:35 51°30.084 3°10 -999 -999 -999 -999
2007-07-30 09:40:35 51°30.213 3°9.766 -999 -999 -999 -999
2007-07-30 09:41:34 51°30.34 3°9.532 -999 -999 -999 -999
2007-07-30 09:42:35 51°30.472 3°9.291 -999 -999 -999 -999
2007-07-30 09:43:35 51°30.6 3°9.051 -999 -999 -999 -999
2007-07-30 09:44:35 51°30.732 3°8.81 -999 -999 -999 -999
2007-07-30 09:45:35 51°30.864 3°8.566 -999 -999 -999 -999
2007-07-30 09:46:35 51°30.997 3°8.319 -999 -999 -999 -999
2007-07-30 09:47:35 51°31.125 3°8.072 -999 -999 -999 -999
2007-07-30 09:48:35 51°31.258 3°7.826 -999 -999 -999 -999
2007-07-30 09:49:35 51°31.388 3°7.578 -999 -999 -999 -999
2007-07-30 09:50:34 51°31.518 3°7.336 -999 -999 -999 -999
2007-07-30 09:51:35 51°31.653 3°7.086 -999 -999 -999 -999
2007-07-30 09:52:35 51°31.787 3°6.838 -999 -999 -999 -999
2007-07-30 09:53:35 51°31.918 3°6.595 -999 -999 -999 -999
2007-07-30 09:54:35 51°32.055 3°6.345 -999 -999 -999 -999
2007-07-30 09:55:35 51°32.192 3°6.097 -999 -999 -999 -999
2007-07-30 09:56:35 51°32.334 3°5.856 -999 -999 -999 -999
2007-07-30 09:57:35 51°32.473 3°5.623 -999 -999 -999 -999
2007-07-30 09:58:35 51°32.613 3°5.395 -999 -999 -999 -999
2007-07-30 09:59:35 51°32.751 3°5.161 -999 -999 -999 -999
2007-07-30 10:00:35 51°32.887 3°4.932 -999 -999 -999 -999
2007-07-30 10:01:35 51°33.014 3°4.692 -999 -999 -999 -999
2007-07-30 10:02:35 51°33.14 3°4.454 -999 -999 -999 -999
2007-07-30 10:03:35 51°33.266 3°4.212 -999 -999 -999 -999
2007-07-30 10:04:35 51°33.39 3°3.978 -999 -999 -999 -999
2007-07-30 10:05:35 51°33.519 3°3.74 -999 -999 -999 -999
2007-07-30 10:06:35 51°33.644 3°3.501 -999 -999 -999 -999
2007-07-30 10:07:35 51°33.771 3°3.258 -999 -999 -999 -999
2007-07-30 10:08:35 51°33.897 3°3.014 -999 -999 -999 -999
2007-07-30 10:09:35 51°34.022 3°2.769 -999 -999 -999 -999
2007-07-30 10:10:35 51°34.148 3°2.524 -999 -999 -999 -999
2007-07-30 10:11:35 51°34.274 3°2.283 -999 -999 -999 -999
2007-07-30 10:12:35 51°34.401 3°2.044 -999 -999 -999 -999
2007-07-30 10:13:35 51°34.525 3°1.804 -999 -999 -999 -999
2007-07-30 10:14:35 51°34.649 3°1.566 -999 -999 -999 -999
2007-07-30 10:15:35 51°34.774 3°1.326 -999 -999 -999 -999
2007-07-30 10:16:35 51°34.898 3°1.083 -999 -999 -999 -999
2007-07-30 10:17:35 51°35.022 3°0.843 -999 -999 -999 -999
2007-07-30 10:18:35 51°35.147 3°0.599 -999 -999 -999 -999
2007-07-30 10:19:35 51°35.27 3°0.355 -999 -999 -999 -999
2007-07-30 10:20:35 51°35.388 3°0.098 -999 -999 -999 -999
2007-07-30 10:21:35 51°35.408 2°59.761 -999 -999 -999 -999
2007-07-30 10:22:35 51°35.375 2°59.412 -999 -999 -999 -999
2007-07-30 10:23:35 51°35.306 2°59.072 -999 -999 -999 -999
2007-07-30 10:24:35 51°35.196 2°58.754 -999 -999 -999 -999
2007-07-30 10:25:35 51°35.085 2°58.436 -999 -999 -999 -999
2007-07-30 10:26:35 51°34.961 2°58.132 -999 -999 -999 -999
2007-07-30 10:27:35 51°34.839 2°57.826 -999 -999 -999 -999
2007-07-30 10:28:35 51°34.719 2°57.522 -999 -999 -999 -999
2007-07-30 10:29:35 51°34.6 2°57.218 -999 -999 -999 -999
2007-07-30 10:30:35 51°34.481 2°56.909 -999 -999 -999 -999
2007-07-30 10:31:35 51°34.362 2°56.599 -999 -999 -999 -999
2007-07-30 10:32:35 51°34.247 2°56.289 -999 -999 -999 -999
2007-07-30 10:33:35 51°34.13 2°55.984 -999 -999 -999 -999
2007-07-30 10:34:35 51°34.014 2°55.676 -999 -999 -999 -999
2007-07-30 10:35:35 51°33.9 2°55.367 -999 -999 -999 -999
2007-07-30 10:36:35 51°33.785 2°55.059 -999 -999 -999 -999
2007-07-30 10:37:35 51°33.672 2°54.748 -999 -999 -999 -999
2007-07-30 10:38:35 51°33.557 2°54.44 -999 -999 -999 -999
2007-07-30 10:39:35 51°33.443 2°54.13 -999 -999 -999 -999
2007-07-30 10:40:35 51°33.328 2°53.823 -999 -999 -999 -999
2007-07-30 10:41:35 51°33.217 2°53.518 -999 -999 -999 -999
2007-07-30 10:42:35 51°33.106 2°53.213 -999 -999 -999 -999
2007-07-30 10:43:35 51°32.994 2°52.908 -999 -999 -999 -999
2007-07-30 10:44:35 51°32.884 2°52.601 -999 -999 -999 -999
2007-07-30 10:45:35 51°32.774 2°52.296 -999 -999 -999 -999
2007-07-30 10:46:35 51°32.663 2°51.993 -999 -999 -999 -999
2007-07-30 10:47:35 51°32.553 2°51.686 -999 -999 -999 -999
2007-07-30 10:48:35 51°32.443 2°51.383 -999 -999 -999 -999
2007-07-30 10:49:35 51°32.333 2°51.078 -999 -999 -999 -999
2007-07-30 10:50:35 51°32.222 2°50.777 -999 -999 -999 -999
2007-07-30 10:51:35 51°32.11 2°50.476 -999 -999 -999 -999
2007-07-30 10:52:35 51°31.998 2°50.176 -999 -999 -999 -999
2007-07-30 10:53:35 51°31.89 2°49.874 -999 -999 -999 -999
2007-07-30 10:54:35 51°31.781 2°49.572 -999 -999 -999 -999
2007-07-30 10:55:34 51°31.676 2°49.275 -999 -999 -999 -999
2007-07-30 10:56:35 51°31.566 2°48.968 -999 -999 -999 -999
2007-07-30 10:57:35 51°31.458 2°48.668 -999 -999 -999 -999
2007-07-30 10:58:35 51°31.35 2°48.37 -999 -999 -999 -999
2007-07-30 10:59:35 51°31.242 2°48.071 -999 -999 -999 -999
2007-07-30 11:00:35 51°31.092 2°47.837 -999 -999 -999 -999
2007-07-30 11:01:34 51°30.886 2°47.85 -999 -999 -999 -999
2007-07-30 11:02:34 51°30.675 2°47.96 -999 -999 -999 -999
2007-07-30 11:03:34 51°30.478 2°48.117 -999 -999 -999 -999
2007-07-30 11:04:35 51°30.29 2°48.317 -999 -999 -999 -999
2007-07-30 11:05:35 51°30.165 2°48.594 -999 -999 -999 -999
2007-07-30 11:06:35 51°30.087 2°48.924 -999 -999 -999 -999
2007-07-30 11:07:35 51°30.049 2°49.258 -999 -999 -999 -999
2007-07-30 11:08:35 51°30.118 2°49.574 -999 -999 -999 -999
2007-07-30 11:09:35 51°30.224 2°49.862 -999 -999 -999 -999
2007-07-30 11:10:34 51°30.325 2°50.152 -999 -999 -999 -999
2007-07-30 11:11:35 51°30.425 2°50.458 -999 -999 -999 -999
2007-07-30 11:12:35 51°30.523 2°50.761 -999 -999 -999 -999
2007-07-30 11:13:35 51°30.618 2°51.067 -999 -999 -999 -999
2007-07-30 11:14:35 51°30.712 2°51.374 -999 -999 -999 -999
2007-07-30 11:15:35 51°30.803 2°51.684 -999 -999 -999 -999
2007-07-30 11:16:35 51°30.894 2°51.994 -999 -999 -999 -999
2007-07-30 11:17:34 51°30.983 2°52.298 -999 -999 -999 -999
2007-07-30 11:18:35 51°31.079 2°52.606 -999 -999 -999 -999
2007-07-30 11:19:35 51°31.181 2°52.905 -999 -999 -999 -999
2007-07-30 11:20:35 51°31.283 2°53.205 -999 -999 -999 -999
2007-07-30 11:21:35 51°31.385 2°53.506 -999 -999 -999 -999
2007-07-30 11:22:35 51°31.487 2°53.807 -999 -999 -999 -999
2007-07-30 11:23:34 51°31.589 2°54.104 -999 -999 -999 -999
2007-07-30 11:24:35 51°31.693 2°54.413 -999 -999 -999 -999
2007-07-30 11:25:35 51°31.798 2°54.716 -999 -999 -999 -999
2007-07-30 11:26:35 51°31.896 2°55.017 -999 -999 -999 -999
2007-07-30 11:27:35 51°31.998 2°55.319 -999 -999 -999 -999
2007-07-30 11:28:35 51°32.076 2°55.638 -999 -999 -999 -999
2007-07-30 11:29:35 51°32.119 2°55.981 -999 -999 -999 -999
2007-07-30 11:30:35 51°32.088 2°56.33 -999 -999 -999 -999
2007-07-30 11:31:35 51°32.011 2°56.666 -999 -999 -999 -999
2007-07-30 11:32:35 51°31.935 2°57.007 -999 -999 -999 -999
2007-07-30 11:33:35 51°31.807 2°57.302 -999 -999 -999 -999
2007-07-30 11:34:35 51°31.677 2°57.601 -999 -999 -999 -999
2007-07-30 11:35:34 51°31.562 2°57.898 -999 -999 -999 -999
2007-07-30 11:36:35 51°31.444 2°58.211 -999 -999 -999 -999
2007-07-30 11:37:35 51°31.321 2°58.518 -999 -999 -999 -999
2007-07-30 11:38:35 51°31.188 2°58.808 -999 -999 -999 -999
2007-07-30 11:39:35 51°31.053 2°59.097 -999 -999 -999 -999
2007-07-30 11:40:35 51°30.922 2°59.391 -999 -999 -999 -999
2007-07-30 11:41:35 51°30.786 2°59.682 -999 -999 -999 -999
2007-07-30 11:42:35 51°30.66 2°59.978 -999 -999 -999 -999
2007-07-30 11:43:35 51°30.527 3°0.274 -999 -999 -999 -999
2007-07-30 11:44:35 51°30.398 3°0.568 -999 -999 -999 -999
2007-07-30 11:45:35 51°30.272 3°0.862 -999 -999 -999 -999
2007-07-30 11:46:35 51°30.144 3°1.156 -999 -999 -999 -999
2007-07-30 11:47:35 51°30.016 3°1.456 -999 -999 -999 -999
2007-07-30 11:48:35 51°29.889 3°1.748 -999 -999 -999 -999
2007-07-30 11:49:35 51°29.762 3°2.039 -999 -999 -999 -999
2007-07-30 11:50:35 51°29.634 3°2.329 -999 -999 -999 -999
2007-07-30 11:51:35 51°29.508 3°2.623 -999 -999 -999 -999
2007-07-30 11:52:35 51°29.381 3°2.909 -999 -999 -999 -999
2007-07-30 11:53:35 51°29.252 3°3.198 -999 -999 -999 -999
2007-07-30 11:54:35 51°29.124 3°3.484 -999 -999 -999 -999
2007-07-30 11:55:35 51°28.994 3°3.773 -999 -999 -999 -999
2007-07-30 11:56:35 51°28.818 3°3.949 -999 -999 -999 -999
2007-07-30 11:57:35 51°28.606 3°3.982 -999 -999 -999 -999
2007-07-30 11:58:35 51°28.393 3°4.001 -999 -999 -999 -999
2007-07-30 11:59:35 51°28.184 3°4.011 -999 -999 -999 -999
2007-07-30 12:00:35 51°27.971 3°4.021 -999 -999 -999 -999
2007-07-30 12:01:35 51°27.757 3°4.031 -999 -999 -999 -999
2007-07-30 12:02:35 51°27.542 3°4.042 -999 -999 -999 -999
2007-07-30 12:03:35 51°27.33 3°4.051 -999 -999 -999 -999
2007-07-30 12:04:35 51°27.12 3°4.068 -999 -999 -999 -999
2007-07-30 12:05:35 51°26.907 3°4.08 -999 -999 -999 -999
2007-07-30 12:06:35 51°26.698 3°4.096 -999 -999 -999 -999
2007-07-30 12:07:35 51°26.487 3°4.109 -999 -999 -999 -999
2007-07-30 12:08:35 51°26.28 3°4.125 -999 -999 -999 -999
2007-07-30 12:09:35 51°26.073 3°4.144 -999 -999 -999 -999
2007-07-30 12:10:35 51°25.864 3°4.16 -999 -999 -999 -999
2007-07-30 12:11:35 51°25.66 3°4.174 -999 -999 -999 -999
2007-07-30 12:12:35 51°25.451 3°4.192 -999 -999 -999 -999
2007-07-30 12:13:35 51°25.246 3°4.215 -999 -999 -999 -999
2007-07-30 12:14:35 51°25.039 3°4.232 -999 -999 -999 -999
2007-07-30 12:15:35 51°24.831 3°4.226 -999 -999 -999 -999
2007-07-30 12:16:35 51°24.621 3°4.226 -999 -999 -999 -999
2007-07-30 12:17:35 51°24.41 3°4.222 -999 -999 -999 -999
2007-07-30 12:18:35 51°24.198 3°4.221 -999 -999 -999 -999
2007-07-30 12:19:35 51°23.987 3°4.224 -999 -999 -999 -999
2007-07-30 12:20:35 51°23.779 3°4.225 -999 -999 -999 -999
2007-07-30 12:21:35 51°23.572 3°4.221 -999 -999 -999 -999
2007-07-30 12:22:35 51°23.405 3°4.084 -999 -999 -999 -999
2007-07-30 12:23:35 51°23.254 3°3.914 -999 -999 -999 -999
2007-07-30 12:24:35 51°23.112 3°3.732 -999 -999 -999 -999
2007-07-30 12:25:35 51°22.99 3°3.521 -999 -999 -999 -999
2007-07-30 12:26:35 51°22.871 3°3.31 -999 -999 -999 -999
2007-07-30 12:27:35 51°22.75 3°3.1 -999 -999 -999 -999
2007-07-30 12:28:35 51°22.63 3°2.884 -999 -999 -999 -999
2007-07-30 12:29:35 51°22.508 3°2.662 -999 -999 -999 -999
2007-07-30 12:30:35 51°22.389 3°2.439 -999 -999 -999 -999
2007-07-30 12:31:35 51°22.284 3°2.2 -999 -999 -999 -999
2007-07-30 12:32:35 51°22.178 3°1.963 -999 -999 -999 -999
2007-07-30 12:33:35 51°22.071 3°1.724 -999 -999 -999 -999
2007-07-30 12:34:35 51°21.963 3°1.489 -999 -999 -999 -999
2007-07-30 12:35:35 51°21.855 3°1.253 -999 -999 -999 -999
2007-07-30 12:36:35 51°21.75 3°1.016 -999 -999 -999 -999
2007-07-30 12:37:35 51°21.647 3°0.779 -999 -999 -999 -999
2007-07-30 12:38:35 51°21.542 3°0.543 -999 -999 -999 -999
2007-07-30 12:39:35 51°21.437 3°0.306 -999 -999 -999 -999
2007-07-30 12:40:35 51°21.333 3°0.067 -999 -999 -999 -999
2007-07-30 12:41:35 51°21.228 2°59.832 -999 -999 -999 -999
2007-07-30 12:42:35 51°21.124 2°59.592 -999 -999 -999 -999
2007-07-30 12:43:35 51°21.021 2°59.354 -999 -999 -999 -999
2007-07-30 12:44:35 51°20.916 2°59.115 -999 -999 -999 -999
2007-07-30 12:45:35 51°20.813 2°58.877 -999 -999 -999 -999
2007-07-30 12:46:35 51°20.712 2°58.637 -999 -999 -999 -999
2007-07-30 12:47:35 51°20.611 2°58.398 -999 -999 -999 -999
2007-07-30 12:48:35 51°20.515 2°58.157 -999 -999 -999 -999
2007-07-30 12:49:35 51°20.417 2°57.915 -999 -999 -999 -999
2007-07-30 12:50:35 51°20.317 2°57.674 -999 -999 -999 -999
2007-07-30 12:51:35 51°20.218 2°57.429 -999 -999 -999 -999
2007-07-30 12:52:35 51°20.116 2°57.185 -999 -999 -999 -999
2007-07-30 12:53:35 51°20.018 2°56.937 -999 -999 -999 -999
2007-07-30 12:54:35 51°19.92 2°56.688 -999 -999 -999 -999
2007-07-30 12:55:35 51°19.819 2°56.439 -999 -999 -999 -999
2007-07-30 12:56:35 51°19.72 2°56.188 -999 -999 -999 -999
2007-07-30 12:57:35 51°19.623 2°55.935 -999 -999 -999 -999
2007-07-30 12:58:35 51°19.522 2°55.684 -999 -999 -999 -999
2007-07-30 12:59:35 51°19.423 2°55.432 -999 -999 -999 -999
2007-07-30 13:00:35 51°19.323 2°55.182 -999 -999 -999 -999
2007-07-30 13:01:35 51°19.223 2°54.929 -999 -999 -999 -999
2007-07-30 13:02:35 51°19.125 2°54.673 -999 -999 -999 -999
2007-07-30 13:03:35 51°19.024 2°54.42 -999 -999 -999 -999
2007-07-30 13:04:35 51°18.926 2°54.165 -999 -999 -999 -999
2007-07-30 13:05:35 51°18.827 2°53.91 -999 -999 -999 -999
2007-07-30 13:06:35 51°18.727 2°53.658 -999 -999 -999 -999
2007-07-30 13:07:35 51°18.627 2°53.403 -999 -999 -999 -999
2007-07-30 13:08:35 51°18.527 2°53.147 -999 -999 -999 -999
2007-07-30 13:09:35 51°18.426 2°52.893 -999 -999 -999 -999
2007-07-30 13:10:35 51°18.297 2°52.677 -999 -999 -999 -999
2007-07-30 13:11:35 51°18.153 2°52.49 -999 -999 -999 -999
2007-07-30 13:12:35 51°17.969 2°52.421 -999 -999 -999 -999
2007-07-30 13:13:35 51°17.778 2°52.378 -999 -999 -999 -999
2007-07-30 13:14:35 51°17.589 2°52.332 -999 -999 -999 -999
2007-07-30 13:15:35 51°17.39 2°52.329 -999 -999 -999 -999
2007-07-30 13:16:35 51°17.196 2°52.392 -999 -999 -999 -999
2007-07-30 13:17:35 51°17.039 2°52.48 -999 -999 -999 -999
2007-07-30 13:18:35 51°16.966 2°52.484 -999 -999 -999 -999
2007-07-30 13:19:35 51°16.955 2°52.41 -999 -999 -999 -999
2007-07-30 13:20:35 51°17.04 2°52.376 -999 -999 -999 -999
2007-07-30 13:21:35 51°17.124 2°52.375 -999 -999 -999 -999
2007-07-30 13:22:35 51°17.166 2°52.38 -999 -999 -999 -999
2007-07-30 13:23:35 51°17.199 2°52.385 -999 -999 -999 -999
2007-07-30 13:24:35 51°17.242 2°52.377 -999 -999 -999 -999
2007-07-30 13:25:35 51°17.28 2°52.379 -999 -999 -999 -999
2007-07-30 13:26:35 51°17.32 2°52.418 -999 -999 -999 -999
2007-07-30 13:27:35 51°17.344 2°52.502 -999 -999 -999 -999
2007-07-30 13:28:35 51°17.274 2°52.605 -999 -999 -999 -999
2007-07-30 13:29:35 51°17.101 2°52.72 -999 -999 -999 -999
2007-07-30 13:30:35 51°16.914 2°52.841 -999 -999 -999 -999
2007-07-30 13:31:35 51°16.727 2°52.969 -999 -999 -999 -999
2007-07-30 13:32:35 51°16.541 2°53.1 -999 -999 -999 -999
2007-07-30 13:33:35 51°16.355 2°53.229 -999 -999 -999 -999
2007-07-30 13:34:35 51°16.166 2°53.355 -999 -999 -999 -999
2007-07-30 13:35:35 51°15.975 2°53.48 -999 -999 -999 -999
2007-07-30 13:36:35 51°15.784 2°53.601 -999 -999 -999 -999
2007-07-30 13:37:35 51°15.593 2°53.728 -999 -999 -999 -999
2007-07-30 13:38:35 51°15.402 2°53.863 -999 -999 -999 -999
2007-07-30 13:39:35 51°15.215 2°53.996 -999 -999 -999 -999
2007-07-30 13:40:35 51°15.03 2°54.134 -999 -999 -999 -999
2007-07-30 13:41:35 51°14.858 2°54.32 -999 -999 -999 -999
2007-07-30 13:42:35 51°14.695 2°54.535 -999 -999 -999 -999
2007-07-30 13:43:35 51°14.537 2°54.763 -999 -999 -999 -999
2007-07-30 13:44:35 51°14.4 2°55.01 -999 -999 -999 -999
2007-07-30 13:45:35 51°14.273 2°55.248 -999 -999 -999 -999
2007-07-30 13:46:37 51°14.169 2°55.376 -999 -999 -999 -999
2007-07-30 13:47:38 51°14.072 2°55.449 -999 -999 -999 -999
2007-07-30 13:48:38 51°13.962 2°55.531 -999 -999 -999 -999
2007-07-30 13:49:39 51°13.844 2°55.619 -999 -999 -999 -999
2007-07-30 13:50:39 51°13.749 2°55.72 -999 -999 -999 -999
2007-07-30 13:51:39 51°13.687 2°55.841 -999 -999 -999 -999
2007-07-30 13:52:39 51°13.634 2°55.959 -999 -999 -999 -999
2007-07-30 13:53:39 51°13.605 2°56.059 -999 -999 -999 -999
2007-07-30 13:54:39 51°13.596 2°56.091 -999 -999 -999 -999
2007-07-30 13:55:39 51°13.596 2°56.093 -999 -999 -999 -999